Regional Weather Roundup
Issued by NWS Sterling, VA

Home | Current Version | Previous Version | Text Only | Print | Product List | Glossary Off
Versions: 1 2 3 4 5 6 7 8 9 10 11 12 13 14 15 16 17 18 19 20 21 22 23 24 25 26 27 28 29 30 31 32 33 34 35 36 37 38 39 40 41 42 43 44 45 46 47 48 49 50

625
ASUS41 KLWX 080010
RWRLWX

REGIONAL WEATHER ROUNDUP
NATIONAL WEATHER SERVICE BALTIMORE MD/WASHINGTON DC
700 PM EST WED DEC 07 2016

Note: "FAIR" indicates few or no clouds below 12,000 feet
with no significant weather and/or obstructions to visibility.
 TC=TEMPERATURE CELSIUS

 * =Non NWS site. Station does not report precipitation (e.g. rain,
    snow, etc.), thunder, or fog.

DCZ001-MDZ009-015-VAZ040>042-051-053>054-080100-
WASHINGTON METRO

CITY           SKY/WX    TMP DP  RH WIND       PRES   REMARKS
WASHINGTON NAT MOCLDY    46  36  68 S3        30.09R
DULLES         MOCLDY    34  30  85 CALM      30.07S
ANDREWS AFB    CLEAR     36  31  83 S2        30.07R
FT BELVOIR     CLEAR     37  31  80 CALM      30.08S
QUANTICO       PTCLDY    40  34  79 NW6       30.09S
COLLEGE PARK*  CLEAR     36  32  87 CALM      30.08R
LEESBURG*      CLEAR     37  36  93 CALM      30.08S
MANASSAS*      CLEAR    N/A N/A N/A CALM      30.09R
GAITHERSBURG*  CLEAR     36  27  69 CALM      30.10S

$$

MDZ006>007-011-014-080100-
BALTIMORE METRO

CITY           SKY/WX    TMP DP  RH WIND       PRES   REMARKS
BWI AIRPORT    PTCLDY    38  32  79 CALM      30.08R
MD SCIENCE CTR   N/A     46  29  51 MISG      30.08R
ANNAPOLIS      CLEAR     43  32  65 CALM      30.08R
FORT MEADE*    CLEAR     32  30  93 CALM      30.11R

$$

MDZ012-015-019>023-080100-
MARYLAND EASTERN SHORE

CITY           SKY/WX    TMP DP  RH WIND       PRES   REMARKS
OCEAN CITY     PTCLDY    40  37  89 CALM      30.08S
SALISBURY      CLEAR     37  37 100 CALM      30.08S
EASTON*        CLEAR     39  36  87 CALM      30.12R

$$

MDZ017>025-080100-
SOUTHERN MARYLAND

CITY           SKY/WX    TMP DP  RH WIND       PRES   REMARKS
PATUXENT RIVER MOCLDY    37  34  89 SW5       30.09R
ST INIGOES     CLEAR     38  35  89 CALM      30.08S
LEONARDTOWN*   CLEAR     37  32  81 CALM      30.11R

$$

MDZ003>005-080100-
NORTH CENTRAL MARYLAND

CITY           SKY/WX    TMP DP  RH WIND       PRES   REMARKS
FREDERICK*     CLEAR     36  36 100 CALM      30.10R
HAGERSTOWN APT CLEAR     44  19  36 W6        30.05S
WESTMINSTER*   PTCLDY    37  30  75 CALM      30.05R

$$

MDZ501>502-080100-
WESTERN MARYLAND

CITY           SKY/WX    TMP DP  RH WIND       PRES   REMARKS
OAKLAND*       NOT AVBL
CUMBERLAND*    NOT AVBL

$$

VAZ025>031-080100-
SHENANDOAH VALLEY

CITY           SKY/WX    TMP DP  RH WIND       PRES   REMARKS
WINCHESTER*    CLEAR     34  27  75 CALM      30.06S
FRONT ROYAL*   FAIR      37  32  81 CALM      30.05S
LURAY*         FAIR      36  34  93 CALM      30.06S
NEW MARKET*    FAIR      33  31  90 CALM      30.05S
STAUNTON*      CLOUDY    34  32  91 CALM      30.07F
WAYNESBORO*    FAIR      38  30  71 CALM      30.06R

$$

WVZ021-048>050-054>055-080100-
EASTERN WEST VIRGINIA PANHANDLE

CITY           SKY/WX    TMP DP  RH WIND       PRES   REMARKS
MARTINSBURG    CLEAR     43  21  41 NW3       30.05S
PETERSBURG*    CLEAR     34  29  82 CALM      30.07S

$$

VAZ036>039-050-080100-
CENTRAL FOOTHILLS

CITY           SKY/WX    TMP DP  RH WIND       PRES   REMARKS
CHARLOTTESVILL CLEAR     43  34  70 CALM      30.06R
CULPEPER*      CLEAR     35  33  92 CALM      30.08F
ORANGE*          N/A     36  36 100 CALM      30.09S
GORDONSVILLE*  FAIR      37  35  94 CALM      30.07S
WARRENTON*     FAIR      33  28  84 CALM      30.07S

$$

VAZ055>057-080100-
NORTH AND CENTRAL PIEDMONT

CITY           SKY/WX    TMP DP  RH WIND       PRES   REMARKS
FREDERICKSBRG* CLEAR     38  36  91 CALM      30.08S
STAFFORD*      CLEAR     35  34  97 CALM      30.12S

$$

NCZ024-NYZ072-PAZ021-071-VAZ022-071-080100-
OTHER REGIONAL OBSERVATIONS

CITY           SKY/WX    TMP DP  RH WIND       PRES   REMARKS
NEW YORK CITY  CLOUDY    44  33  65 CALM      30.06R
PHILADELPHIA   MOCLDY    44  33  65 W8        30.07R
PITTSBURGH     CLOUDY    38  22  52 SW5       30.06S
ROANOKE        CLOUDY    46  30  53 NE3       30.08R
RICHMOND       MOCLDY    44  33  65 NE5       30.08S
RALEIGH        PTCLDY    47  42  83 E3        30.07S

$$

ANZ530>537-080100-
MARINE OBSERVATIONS

STATION/POSITION TIME  TEMP    WIND        PRES
                       AIR SEA DIR/SP/G
                 (UTC) (F)     (DEG/KT/KT) (MB)
THOMAS PT LIGHT  0000   47 49  310/  3/  4   N/A
BALT KEY BRIDGE  2348   46     230/  3/  4 1018.6R
COVE POINT       2348   46     320/  5/  6 1019.4R
LEWISETTA        2348   46 49  320/  3/  3 1018.6R
SOLOMONS ISLAND  2348          280/  1/  2   N/A
PINEY POINT      2342           10/  2/  3   N/A

$$





USA.gov is the U.S. government's official web portal to all federal, state and local government web resources and services.